Location: Unspecified
(26.1220°N, 0.0000°E)
Time: 00:11:27
(UTC+00:00)

Envisat - Pass Details

Date: 27 May 2019
Orbit: 764 x 766 km, 98.1° (Epoch: 20 June)

Event Time Altitude Azimuth Distance (km) Brightness Sun altitude
Rises 19:22:52 0° 193° (SSW) 3,217 6.1 -8.3°
Reaches altitude 10° 19:25:28 10° 205° (SSW) 2,294 5.4 -8.9°
Maximum altitude 19:29:43 27° 262° (W) 1,436 5.1 -9.7°
Drops below altitude 10° 19:33:59 10° 320° (NW) 2,302 6.8 -10.5°
Sets 19:36:37 0° 332° (NNW) 3,231 7.3 -11.0°
